Погода в Риу-Верди

Бразилия     17°48′24″S   50°54′31″W
темп.,
°C
ветер,
м/с
пор.,
м/с
влажн.,
%
обл.,
%
осадки,
мм/ч
давл.,
гПа
погр.,
м
27 февраля, сб
сб2700:00+20с359664 0.0 1011127
03:00+19св239467 0.1 101071
06:00+18ссв239552 0.3 101158
09:00+22ссв348626 0.3 1012410
12:00+25с23760 5.9 1011844
15:00+26ссв117414 10.9 1008842
18:00+26св118226 1.1 1007259
21:00+21св368934 11.1 1009100
28 февраля, вс
вс2800:00+20ссв1296100 6.7 101187
03:00+19с61196100 10.3 1009322
06:00+19ссв4997100 1.6 1010525
09:00+20ссв5994100 1.7 1012567
12:00+23ссв678691 1.2 1011835
15:00+23ссв578888 7.0 1008812
18:00+22ссв489149 2.9 1007679
21:00+19ссв389745 3.2 1010273
1 марта, пн
пн100:00+19с3897100 0.0 1011369
03:00+19св3798100 0.0 1010252
06:00+19всв489896 0.0 1011333
09:00+19св389698 0.1 1012491
12:00+23св468389 1.1 1011886
15:00+24св568448 6.2 1008790
18:00+23св259047 2.6 1008323
21:00+21св269473 5.8 1010171
2 марта, вт
вт200:00+20св2596100 3.7 1012197
03:00+19всв3699100 7.9 1011279
06:00+19всв2598100 3.9 1012231
09:00+20св2394100 4.2 1014161
12:00+24св5677100 0.0 1013717
15:00+26св447564 0.0 1009945
18:00+23всв358854 1.1 1009366
21:00+20всв259450 3.5 1012131
3 марта, ср
ср300:00+20св239297 0.9 101461
03:00+20св129199 3.0 101325
06:00+19всв1296100 0.4 101470
09:00+21всв1292100 0.7 1016121
12:00+24с1280100 3.4 1015518
15:00+24в2280100 5.0 1012615
18:00+23всв259193 3.4 1011264
21:00+20ссв239096 4.1 101369